Location: Concepci�n
(32.5333°N, 117.1167°W)
Time: 19:51:22
(UTC+00:00)

CZ-4C R/B - Pass Details

Date: 08 May 2021
Orbit: 407 x 485 km, 97.7° (Epoch: 18 June)

Event Time Altitude Azimuth Distance (km) Brightness Sun altitude
Rises 12:24:13 0° 158° (SSE) 2,413 6.6 -6.8°
Reaches altitude 10° 12:26:17 10° 154° (SSE) 1,535 5.6 -6.4°
Maximum altitude 12:29:28 53° 76° (ENE) 533 3.8 -5.8°
Drops below altitude 10° 12:32:37 10° 359° (N) 1,508 5.9 -5.2°
Sets 12:34:37 0° 354° (N) 2,366 6.8 -4.8°
